Location: Saint Louis
(38.6272°N, 90.1978°W)
Time: 05:48:37
(UTC-05:00)

Tiangong 1 - Visible Passes

Search period start: 30 August 2016 00:00
Search period end: 09 September 2016 00:00
Orbit: 362 x 383 km, 42.8° (Epoch: 30 August)

Date Brightness Start Highest point End Pass type
(mag) Time Alt. Az. Time Alt. Az. Time Alt. Az.
30 Aug 1.7 21:19:04 10° WNW 21:21:38 51° WSW 21:21:38 51° WSW visible
31 Aug 1.0 20:15:37 10° WNW 20:18:44 75° NNE 20:21:05 16° ESE visible
31 Aug 4.1 21:52:36 10° W 21:53:03 12° WSW 21:53:03 12° WSW visible
01 Sep 1.9 20:48:46 10° W 20:51:42 39° SSW 20:52:32 31° S visible
02 Sep 3.8 21:22:54 10° WSW 21:24:01 13° SW 21:24:01 13° SW visible
03 Sep 2.8 20:18:28 10° W 20:21:06 25° SSW 20:23:36 11° SSE visible
